STARLINK-34584, 64697

Orbit data source: Space-Track

STARLINK-34584, 64697 is a payload satellite owned by SpaceX/Seattle (US) in LEO that was launched on Sat, 28 Jun 2025 UTC via an FALCON 9 launch vehicle from the Air Force Western Test Range (AFWTR). Payload-class satellites include a variety of spacecraft equipped with specific instruments for various scientific and technological missions. These include communications satellites like Starlink; space stations such as the ISS; scientific satellites like the Hubble; Earth observation satellites from companies like Planet Labs, Umbra, and HawkEye 360; GPS; miniature CubeSats for education and research; and military/defense satellites.

Loading next visibility...
Identifier
64697, 2025-142B
Orbit
LEO
Country
Flag of USUS
Related business
Manufacturer
SpaceX/Seattle
Mission
Operational Commercial Communications
Bus & Motor
STARLINK V2MO, Unknown motor
Mass
575 kg wet, ~530 kg dry
Launch date (UTC)
2025-06-28 (1 year ago)
Launch vehicle
FALCON 9
Launch site
Air Force Western Test Range (AFWTR)
Object type
Payload
Rocket body
Debris
Shape & HBR
Box + 1 Pan, 17.7 m
Radar Cross Section
41.120 m², Large (>1 m²)

Expand to show TLE details & history
Last TLE update: 13 hours ago

TLE from 13 hours ago
0 STARLINK-34584
1 64697U 25142B   26264.21889558  .00017407  00000-0  60847-3 0  9999
2 64697  69.9988 178.8877 0002338 270.0115  90.0793 15.29587867 68832
Epoch: 2026-09-21T05:15Z
TLE epoch observation values (Epoch: 2026-09-21T05:15:12.578Z)
Latitude
0.00007°
Longitude
99.98345°
Altitude
479.503 km
Speed
7.626 km/s
True Right ascension
11h 55m 33s
True Declination
0° 00' 00"
Sunlit
Object was in daylight at epoch
Visualization orbit readout
Latitude
Unknown
Longitude
Unknown
Altitude
Unknown
Speed
Unknown
Apparent Right ascension
Unknown
Apparent Declination
Unknown
Sunlit
N/A
Visualization observer readout
Local Sidereal Time
10:57:16
Azimuth
Unknown
Elevation
Unknown
Doppler factor
Unknown
Orbital elements
Apogee altitude
476.565 km
Perigee altitude
473.361 km
Semi-major axis
6,853.1 km
Eccentricity
0.00023
Inclination
69.9988°
RAAN
178.8877°
Arg. of periapsis
270.0115°
True anomaly
90.10609°
Mean anomaly
90.0793°
Eccentric anomaly
90.0927°
Mean motion
3.82571 °/min
Orbital period
94.1 mins
BSTAR
0.00060847
Loading maneuver chart data...
Computing Atmospheric mass density...
Loading historical data...
Loading historical data...
Loading historical data...
Loading historical data...
Loading historical data...
Loading historical data...
Loading historical data...

Documentation

Showing up to 5 results
|